FW1340 Weather Reports


time (UTC)temp
C
wind
direction
speed
KPH
gust
KPH
rain 1hr
cm
rain 24hr
cm
rain mn
cm
humidity
%
barometer
mb
20260902204541 25 245 0.0 0.0 0.00 0.00 0.00 53 1016.7
20260902203036 25 288 0.0 0.0 0.00 0.00 0.00 53 1016.8
20260902201542 25 229 0.0 0.0 0.00 0.00 0.00 53 1017.0
20260902200033 24 258 0.0 0.0 0.00 0.00 0.00 54 1017.2
20260902194547 24 277 0.0 0.0 0.00 0.00 0.00 53 1017.3
20260902193031 24 221 0.0 0.0 0.00 0.00 0.00 52 1017.3
20260902191529 24 168 0.0 0.0 0.00 0.00 0.00 52 1017.5
20260902190029 24 309 0.0 0.0 0.00 0.00 0.00 53 1017.6
20260902184530 24 250 0.0 0.0 0.00 0.00 0.00 52 1017.6
20260902183029 25 195 0.0 0.0 0.00 0.00 0.00 52 1017.6
20260902181522 23 171 0.0 0.0 0.00 0.00 0.00 55 1017.7
20260902180020 23 319 0.0 0.0 0.00 0.00 0.00 57 1017.7
20260902174514 22 259 0.0 0.0 0.00 0.00 0.00 58 1017.7
20260902173013 22 319 0.0 0.0 0.00 0.00 0.00 59 1017.6
20260902171512 22 124 0.0 0.0 0.00 0.00 0.00 60 1017.7
20260902170008 21 158 0.0 0.0 0.00 0.00 0.00 62 1017.6
20260902164606 21 215 0.0 0.0 0.00 0.00 0.00 64 1017.5
20260902163056 20 92 0.0 0.0 0.00 0.00 0.00 68 1017.5
20260902161556 19 65 0.0 0.0 0.00 0.00 0.00 70 1017.6
20260902160104 18 86 0.0 0.0 0.00 0.00 0.00 75 1017.6
20260902154544 17 88 0.0 0.0 0.00 0.00 0.00 78 1017.7
20260902153044 16 86 0.0 0.0 0.00 0.00 0.00 81 1017.6
20260902151540 15 90 0.0 0.0 0.00 0.00 0.00 84 1017.4
20260902150031 14 71 0.0 0.0 0.00 0.00 0.00 87 1017.3
20260902144526 13 101 0.0 0.0 0.00 0.00 0.00 88 1017.3
20260902143024 13 89 0.0 0.0 0.00 0.00 0.00 89 1017.2
20260902141524 12 92 0.0 0.0 0.00 0.00 0.00 90 1017.2
20260902140020 12 98 0.0 0.0 0.00 0.00 0.00 90 1017.1
20260902134526 11 68 0.0 0.0 0.00 0.00 0.00 89 1017.0
20260902133016 11 68 0.0 0.0 0.00 0.00 0.00 90 1016.9
20260902131515 11 68 0.0 0.0 0.00 0.00 0.00 90 1016.7
20260902130015 11 68 0.0 0.0 0.00 0.00 0.00 90 1016.6
20260902124516 11 85 0.0 0.0 0.00 0.00 0.00 90 1016.6
20260902123019 11 85 0.0 0.0 0.00 0.00 0.00 90 1016.5
20260902121514 11 113 0.0 0.0 0.00 0.00 0.00 89 1016.4
20260902120012 11 92 0.0 0.0 0.00 0.00 0.00 88 1016.4
20260902114514 11 116 0.0 0.0 0.00 0.00 0.00 88 1016.4
20260902113009 11 121 0.0 0.0 0.00 0.00 0.00 87 1016.5
20260902111507 11 157 0.0 0.0 0.00 0.00 0.00 86 1016.5
20260902110012 11 157 0.0 0.0 0.00 0.00 0.00 86 1016.7
20260902104512 11 165 0.0 0.0 0.00 0.00 0.00 85 1016.8
20260902103001 12 165 0.0 0.0 0.00 0.00 0.00 85 1016.8
20260902101605 12 165 0.0 0.0 0.00 0.00 0.00 86 1016.9
20260902100128 12 165 0.0 0.0 0.00 0.00 0.00 86 1017.0
20260902094558 12 165 0.0 0.0 0.00 0.00 0.00 86 1017.0
20260902093112 12 114 0.0 0.0 0.00 0.00 0.00 86 1017.0
20260902091606 12 114 0.0 0.0 0.00 0.00 0.00 86 1016.8
20260902090155 12 114 0.0 0.0 0.00 0.00 0.00 86 1016.9
20260902084602 12 114 0.0 0.0 0.00 0.00 0.00 86 1016.9
20260902083103 12 114 0.0 0.0 0.00 0.00 0.00 85 1016.9
20260902081610 12 114 0.0 0.0 0.00 0.00 0.00 85 1016.8
20260902080057 12 114 0.0 0.0 0.00 0.00 0.00 84 1016.8
20260902074548 12 121 0.0 0.0 0.00 0.00 0.00 84 1016.7
20260902073043 13 98 0.0 0.0 0.00 0.00 0.00 84 1016.8
20260902071549 13 89 0.0 0.0 0.00 0.00 0.00 83 1016.7
20260902070039 13 115 0.0 0.0 0.00 0.00 0.00 83 1016.7
20260902064538 13 119 0.0 0.0 0.00 0.00 0.00 82 1016.6
20260902063100 13 109 0.0 0.0 0.00 0.00 0.00 81 1016.6
20260902061539 13 74 0.0 0.0 0.00 0.00 0.00 79 1016.7
20260902060048 15 96 0.0 0.0 0.00 0.00 0.00 77 1016.6
20260902054537 15 252 0.0 0.0 0.00 0.00 0.00 77 1016.7
20260902053040 15 252 0.0 0.0 0.00 0.00 0.00 76 1016.8
20260902051535 16 244 0.0 0.0 0.00 0.00 0.00 74 1016.8
20260902050035 16 263 0.0 0.0 0.00 0.00 0.00 72 1016.8
20260902044542 17 263 0.0 0.0 0.00 0.00 0.00 71 1016.7
20260902043033 17 278 0.0 0.0 0.00 0.00 0.00 68 1016.7
20260902041537 17 281 0.0 0.0 0.00 0.00 0.00 66 1016.5
20260902040034 17 258 0.0 0.0 0.00 0.00 0.00 65 1016.3
20260902034529 18 276 0.0 0.0 0.00 0.00 0.00 64 1016.1
20260902033028 18 271 0.0 0.0 0.00 0.00 0.00 65 1015.8
20260902031537 18 249 0.0 0.0 0.00 0.00 0.00 64 1015.5
20260902030027 18 277 0.0 0.0 0.00 0.00 0.00 64 1015.3
20260902024527 19 302 0.0 0.0 0.00 0.00 0.00 62 1015.1
20260902023026 20 277 0.0 0.0 0.00 0.00 0.00 60 1015.0
20260902021537 20 242 0.0 0.0 0.00 0.00 0.00 58 1014.8
20260902020033 21 277 0.0 0.0 0.00 0.00 0.00 55 1014.7
20260902014543 21 259 0.0 0.0 0.00 0.00 0.00 52 1014.6
20260902013024 22 288 0.0 0.0 0.00 0.00 0.00 51 1014.5
20260902011524 22 276 0.0 0.0 0.00 0.00 0.00 49 1014.4
20260902010027 23 252 0.0 0.0 0.00 0.00 0.00 48 1014.3
20260902004525 23 270 0.0 0.0 0.00 0.00 0.00 47 1014.2
20260902003024 24 252 0.0 0.0 0.00 0.00 0.00 47 1014.1
20260902001523 24 250 0.0 0.0 0.00 0.00 0.00 46 1014.2
20260902000033 25 244 0.0 0.0 0.00 0.00 0.00 44 1014.2
20260901234536 25 237 0.0 0.0 0.00 0.00 0.00 43 1014.2
20260901233019 25 267 0.0 0.0 0.00 0.00 0.00 44 1014.4
20260901231519 25 250 0.0 0.0 0.00 0.00 0.00 43 1014.5
20260901230018 25 284 0.0 0.0 0.00 0.00 0.00 43 1014.5
20260901224517 25 259 0.0 0.0 0.00 0.00 0.00 43 1014.7
20260901223015 25 255 0.0 0.0 0.00 0.00 0.00 45 1014.8
20260901221535 24 272 0.0 0.0 0.00 0.00 0.00 46 1015.0
20260901220014 25 279 0.0 0.0 0.00 0.00 0.00 46 1015.1
20260901214510 24 83 0.0 0.0 0.00 0.00 0.00 46 1015.2
20260901213006 23 268 0.0 0.0 0.00 0.00 0.00 50 1015.1
20260901211505 23 234 0.0 0.0 0.00 0.00 0.00 51 1015.2
20260901210007 23 261 0.0 0.0 0.00 0.00 0.00 51 1015.3